SL-16 R/B, 20625

Orbit data source: Space-Track

SL-16 R/B, 20625 is space debris in LEO originally from a launch on Tue, 22 May 1990 UTC launched from the Tyuratam Missile And Space Complex (TTMTR). Debris objects in space refer to the collection of defunct objects orbiting the Earth. Examples of debris include non-operational satellites, rocket bodies, and fragments generated from explosions, collisions, or faulty payload assembly.

Loading next visibility...
Identifier
20625, 1990-046B
Orbit
LEO
Country
Flag of CISCIS
Related business
Manufacturer
Yuzhnoe
Mission
Spacecraft
Bus & Motor
11S772, Unknown motor
Mass
9,000 kg wet, 9,000 kg dry
Launch date (UTC)
1990-05-22 (36 years ago)
Launch vehicle
Unknown
Launch site
Tyuratam Missile And Space Complex (TTMTR)
Object type
Payload
Rocket body
Debris
Shape & HBR
Cyl, 5.2 m
Radar Cross Section
37.829 m², Large (>1 m²)

Expand to show TLE details & history
Last TLE update: 9 hours ago

TLE from 9 hours ago
0 SL-16 R/B
1 20625U 90046B   26093.86345905  .00000055  00000-0  53130-4 0  9990
2 20625  70.9987 245.0394 0016547 266.9622  92.9607 14.15019207851951
Epoch: 2026-04-03T20:43Z
TLE epoch observation values (Epoch: 2026-04-03T20:43:22.861Z)
Latitude
-0.00006°
Longitude
102.00264°
Altitude
845.284 km
Speed
7.43 km/s
True Right ascension
16h 20m 09s
True Declination
0° 00' 00"
Sunlit
Object was in full shadow at epoch
Visualization orbit readout
Latitude
Unknown
Longitude
Unknown
Altitude
Unknown
Speed
Unknown
Apparent Right ascension
Unknown
Apparent Declination
Unknown
Sunlit
N/A
Visualization observer readout
Local Sidereal Time
11:27:54
Azimuth
Unknown
Elevation
Unknown
Doppler factor
Unknown
Orbital elements
Apogee altitude
852.116 km
Perigee altitude
828.228 km
Semi-major axis
7,218.309 km
Eccentricity
0.00165
Inclination
70.9987°
RAAN
245.0394°
Arg. of periapsis
266.9622°
True anomaly
93.15004°
Mean anomaly
92.9607°
Eccentric anomaly
93.05537°
Mean motion
3.53908 °/min
Orbital period
101.72 mins
BSTAR
0.00005313
Loading maneuver chart data...
Computing Atmospheric mass density...
Loading historical data...
Loading historical data...
Loading historical data...
Loading historical data...
Loading historical data...
Loading historical data...
Loading historical data...
Other satellites on launch #46 in the year 1990 (1990-05-22 UTC)

Documentation

Showing up to 5 results
|